Location: Arrodets-la-Barthe
(43.0306°N, 0.2829°E)
Time: 13:32:29
(UTC+00:00)

STRAND 1 - Visible Passes

Search period start: 01 April 2023 00:00
Search period end: 11 April 2023 00:00
Orbit: 766 x 780 km, 98.4° (Epoch: 31 March)

Date Brightness Start Highest point End Pass type
(mag) Time Alt. Az. Time Alt. Az. Time Alt. Az.
01 Apr ? 04:49:44 10° ESE 04:53:52 25° ENE 04:58:01 10° N visible
01 Apr ? 20:17:07 10° NNW 20:20:29 18° WNW 20:23:50 10° WSW visible
02 Apr ? 04:17:32 10° E 04:19:53 13° ENE 04:22:13 10° NNE visible
02 Apr ? 19:41:50 10° N 19:46:25 34° WNW 19:50:57 10° SW visible
03 Apr ? 19:07:05 10° N 19:12:10 70° WNW 19:17:12 10° SSW visible
04 Apr ? 04:45:51 10° ESE 04:49:50 24° ENE 04:53:50 10° NNE visible
04 Apr ? 20:12:54 10° NNW 20:16:27 19° WNW 20:20:00 10° WSW visible
05 Apr ? 04:13:54 10° E 04:15:52 12° ENE 04:17:50 10° NE visible
05 Apr ? 19:37:41 10° N 19:42:21 37° WNW 19:46:59 10° SW visible
06 Apr ? 19:02:58 10° N 19:08:05 76° WNW 19:13:09 10° SSW visible
06 Apr ? 20:45:17 10° NW 20:46:20 11° WNW 20:47:24 10° WNW visible
07 Apr ? 04:41:57 10° ESE 04:45:47 22° ENE 04:49:38 10° NNE visible
07 Apr ? 20:08:41 10° NNW 20:12:24 21° WNW 20:16:07 10° WSW visible
08 Apr ? 04:10:21 10° ENE 04:11:50 11° ENE 04:13:19 10° NE visible
08 Apr ? 19:33:32 10° N 19:38:17 40° WNW 19:43:00 10° SW visible
09 Apr ? 18:58:51 10° NNE 19:03:59 82° WNW 19:09:04 10° SSW visible
09 Apr ? 20:40:38 10° NW 20:42:18 12° WNW 20:43:58 10° WNW visible
10 Apr ? 04:38:04 10° ESE 04:41:44 20° ENE 04:45:24 10° NNE visible
10 Apr ? 20:04:27 10° NNW 20:08:20 22° WNW 20:12:13 10° WSW visible
